PHARMSAT
1 35002U 09028B 12226.86484473 .07728342 73476-5 57159-3 0 789
2 35002 040.4341 050.6671 0012079 300.9773 059.0492 16.39309245183554
METEOR-M
1 35865U 09049A 12278.78544814 -.00000083 00000-0 -17882-4 0 8396
2 35865 098.6404 330.9860 0003330 091.5801 268.5760 14.21870120158174
RS-38
1 35869U 09049E 12278.71971612 .00000087 00000-0 59002-4 0 8238
2 35869 098.6377 330.8980 0005518 092.3072 267.8729 14.22090410158183
JUGNU
1 37839U 11058B 12277.78280963 .00000620 00000-0 19019-3 0 02418
2 37839 019.9596 060.3096 0019206 340.3503 019.6161 14.12085568050617
SRMSAT
1 37841U 11058D 12278.69284855 .00000264 00000-0 00000 0 0 2427
2 37841 019.9699 061.8374 0012003 310.6014 049.3366 14.10166470 50666
RAX-2
1 37853U 11061D 12277.86369432 .00007216 00000-0 56660-3 0 03115
2 37853 101.7046 007.5568 0243446 040.7818 321.1319 14.80977820050482
AUBIESAT
1 37854U 11061E 12278.86833767 .00005509 00000-0 42921-3 0 3044
2 37854 101.7072 009.4234 0243575 037.3976 324.3868 14.81444237 50625
HRBE
1 37855U 11061F 12277.81350390 .00007854 00000-0 60683-3 0 03045
2 37855 101.7078 007.8006 0244998 040.2603 321.6455 14.81249505050466
RS-39
1 38051U 11062C 12278.81562591 .00015285 00000-0 59315-3 0 7630
2 38051 051.6397 356.7651 0013846 070.0062 032.9947 15.26203053 38709
E-STAR
1 38079U 12006C 12278.48518885 .00061336 00000-0 14805-2 0 5505
2 38079 069.4857 064.6073 0707135 109.3247 258.5464 14.22942666 33083
GOLIAT
1 38085U 12006J 12278.48740678 .00059028 00000-0 14188-2 0 5160
2 38085 069.4873 065.2746 0713193 109.6907 258.2457 14.21745117 33067
HORYU-2
1 38340U 12025D 12278.88580632 .00002103 00000-0 35689-3 0 1798
2 38340 098.1845 218.9168 0012582 347.8719 012.2022 14.70239287 20595
RS-40
1 38736U 12041D 12277.67696518 .00000010 00000-0 00000-0 0 00714
2 38736 082.4788 315.0678 0019075 163.8936 196.2761 12.42646648008388
PROITERES
1 38756U 12047B 12278.88592976 .00001013 00000-0 16249-3 0 954
2 38756 098.2835 344.9095 0012357 193.7070 166.3795 14.73900714 3786
AENEAS
1 38760U 0 12278.53401541 .00005424 00000-0 50270-3 0 00349
2 38760 064.6757 337.4563 0218907 283.6539 220.0928 14.79040195003034
OBJECT D
1 38761U 0 12278.53286792 .00003542 00000-0 33262-3 0 00306
2 38761 064.6753 337.4447 0219609 283.7006 224.2856 14.79139013003036
OBJECT E
1 38762U 0 12278.53224914 .00004835 00000-0 44703-3 0 00303
2 38762 064.6771 337.4428 0219560 283.4439 224.1284 14.79190727003032
OBJECT F
1 38763U 0 12278.53194539 .00004382 00000-0 40626-3 0 00287
2 38763 064.6755 337.4432 0219859 283.6030 224.1451 14.79201828002872
OBJECT G
1 38764U 0 12278.53160882 .00004593 00000-0 42532-3 0 00284
2 38764 064.6751 337.4420 0219548 283.5935 222.9426 14.79214043003034
OBJECT H
1 38765U 0 12278.45503644 .00006059 00000-0 55525-3 0 00312
2 38765 064.6769 337.6737 0219301 283.5957 176.6794 14.79257306003029
OBJECT J
1 38766U 0 12278.45696642 .00006945 00000-0 63214-3 0 00288
2 38766 064.6746 337.6519 0219104 283.4617 195.2216 14.79383851003027
